User: anonymous   Login
Location: Unspecified
(0.0000°N, 0.0000°E)
Time: 19:28:25
(UTC+00:00)
Language:

STARLINK-11111 [DTC] - Orbit

View from above orbital plane
View from above orbital plane
View from above satellite
View from above satellite

Ground track
Ground track

The orbit is defined by the following mean orbital elements,

1 59764U          26145.37437125 +.00000000 +00000-0 +51772-3 0 00009
2 59764  53.1534 187.0427 0006053  28.7423 331.3930 15.75349000    09
Epoch (UTC): 25 May 2026 08:59:05
Eccentricity: 0.0006053
inclination: 53.1534°
perigee height: 340 km
apogee height: 348 km
right ascension of ascending node: 187.0427°
argument of perigee: 28.7423°
revolutions per day: 15.75349000
mean anomaly at epoch: 331.3930°

The dashed part of the orbit path shows where the satellite is in the earth's shadow,  

DLR